Regional Weather Roundup
Issued by NWS

Home | Current Version | Previous Version | Graphics & Text | Print | Product List | Glossary On
Versions: 1 2 3 4 5 6 7 8 9 10 11 12 13 14 15 16 17 18 19 20 21 22 23 24 25 26 27
000
ASUS45 KPSR 280710
RWRAZ

ARIZONA HOURLY REGIONAL WEATHER ROUNDUP
NATIONAL WEATHER SERVICE PHOENIX AZ
1200 AM MST TUE MAR 28 2017

NOTE: FAIR INDICATES FEW OR NO CLOUDS BELOW 12,000 FEET WITH NO
SIGNIFICANT WEATHER AND/OR OBSTRUCTIONS TO VISIBILITY.

AZZ001>003-036-280800-
NORTHWEST ARIZONA

CITY           SKY/WX    TMP DP  RH WIND       PRES   REMARKS
BULLHEAD CITY  CLEAR     64  39  39 N12       29.91R
KINGMAN        PTCLDY    47  27  45 N10       29.94S
$$

AZZ004>008-015-016-018-280800-
NORTH CENTRAL ARIZONA

CITY           SKY/WX    TMP DP  RH WIND       PRES   REMARKS
GRAND CANYON   MOCLDY    36  29  75 VRB5      29.90S WCI  32
WILLIAMS       MOCLDY    34  30  86 NW8       29.91F WCI  27
PRESCOTT       CLOUDY    40  37  89 S7        29.90F
FLAGSTAFF      CLOUDY    34  27  75 W8        29.87F WCI  27
PAYSON         PTCLDY    41  36  81 N6        29.91F
PAGE           CLOUDY    49  31  49 W6        29.83R
$$

AZZ009>014-017-280800-
NORTHEAST ARIZONA

CITY           SKY/WX    TMP DP  RH WIND       PRES   REMARKS
WINSLOW        MOCLDY    44  39  82 SW9       29.87F
SAINT JOHNS    LGT RAIN  39  37  92 NW15G21   29.92R WCI  31
WINDOW ROCK    CLOUDY    38  32  79 N3        29.90F
SHOW LOW       LGT RAIN  37  34  87 CALM      29.91F
$$

AZZ023-280800-
GREATER PHOENIX AREA

CITY           SKY/WX    TMP DP  RH WIND       PRES   REMARKS
PHOENIX        CLOUDY    65  36  34 VRB3      29.80R THUNDER
BUCKEYE        MOCLDY    64  32  29 NW10      29.83R
LUKE AFB       MOCLDY    66  36  32 CALM      29.81R
DEER VALLEY    MOCLDY    61  36  39 N13G22    29.80F
SCOTTSDALE     PTCLDY    63  35  35 N8        29.82S
MESA-GATEWAY   MOCLDY    64  37  36 N20G30    29.81R
$$

AZZ027-028-280800-
SOUTHWEST MARICOPA COUNTY AND PINAL COUNTY

CITY           SKY/WX    TMP DP  RH WIND       PRES   REMARKS
CASA GRANDE    NOT AVBL
GILA BEND      CLOUDY    66  41  40 SW8       29.79R
$$

AZZ503-504-507>509-280800-
SOUTHEAST ARIZONA

CITY           SKY/WX    TMP DP  RH WIND       PRES   REMARKS
TUCSON         CLEAR     61  32  33 W5        29.86F
DAVIS-MONTHAN  PTCLDY    61  31  32 W6        29.84F
NOGALES        CLEAR     54  32  43 CALM      29.91R
SIERRA VISTA   CLEAR     55  29  36 W9        29.91S
DOUGLAS        CLEAR     58  33  39 SW10      29.88R
SAFFORD        PTCLDY    61  34  36 NW17      29.79S
$$

AZZ020-021-025-026-031-280800-
SOUTHWEST ARIZONA

CITY           SKY/WX    TMP DP  RH WIND       PRES   REMARKS
YUMA           PTCLDY    65  43  44 NW16G22   29.85S
$$

CAZ031-033-041-043-047-048-061-280800-
SOUTHERN CALIFORNIA

CITY           SKY/WX    TMP DP  RH WIND       PRES   REMARKS
DOWNTOWN L.A.  CLEAR     63  36  36 CALM      29.99S
L.A. AIRPORT   CLEAR     64  36  35 NW8       29.99F
SAN DIEGO      PTCLDY    61  52  72 CALM      30.04R
BURBANK        CLEAR     59  34  39 W8        30.01S
ONTARIO        CLEAR     56  43  61 CALM      30.00R
RIVERSIDE      CLEAR     54  47  77 CALM      30.00S
PALM SPRINGS   CLEAR     67  34  29 NW12G20   29.96R
EL CENTRO NAS  CLEAR     64  37  36 W13       29.91R
IMPERIAL       CLEAR     66  41  40 NW17      29.88R
BLYTHE         PTCLDY    69  30  23 NW21G30   29.86R
NEEDLES        PTCLDY    65  36  34 N12       29.91R
$$

NVZ020-UTZ003-280800-
SOUTHERN NEVADA-UTAH

CITY           SKY/WX    TMP DP  RH WIND       PRES   REMARKS
LAS VEGAS      PTCLDY    59  24  26 NW17G25   29.97R
SALT LAKE CITY MOCLDY    41  35  79 N9        30.00R
$$

NMZ009-TXZ055-280800-
NEW MEXICO-WEST TEXAS

CITY           SKY/WX    TMP DP  RH WIND       PRES   REMARKS
ALBUQUERQUE    CLOUDY    51  38  60 NW5       29.85F
EL PASO        PTCLDY    67  27  22 NW6       29.80F
$$


........................KEY........................
SKY/WX - SKY CONDITION/WEATHER
TMP    - TEMPERATURE IN FAHRENHEIT
DP     - DEW POINT IN FAHRENHEIT
RH     - RELATIVE HUMIDITY IN PERCENT
WIND   - DIRECTION AND SPEED IN MILES PER HOUR (MPH)
VRB    - VARIABLE WIND DIRECTION
PRES   - MEAN SEA LEVEL PRESSURE IN INCHES OF MERCURY
         F - FALLING PRESSURE   R - RISING PRESSURE
         S - STEADY PRESSURE
VSB    - VISIBILITY IN MILES
HX     - HEAT INDEX IN FAHRENHEIT
WCI    - WIND CHILL INDEX IN FAHRENHEIT
TC     - TEMPERATURE IN CELSIUS WHICH IS ALSO KNOWN AS
         TEMPERATURE IN CENTIGRADE
AFB    - AIR FORCE BASE
         LUKE AFB IS LUKE AIR FORCE BASE
         DAVIS-MONTHAN IS DAVIS-MONTHAN AIR FORCE BASE
NAS    - NAVAL AIR STATION
         EL CENTRO NAS IS EL CENTRO NAVAL AIR STATION
N/A    - NOT AVAILABLE





USA.gov is the U.S. government's official web portal to all federal, state and local government web resources and services.